This is the latest recevied weather packets stored in our database for station/object KC8QDR-1. If no packets are shown the sender has not sent any weather packets the latest 10 day(s).
| Time | Temp. | Humidity | Pressure | Rain* | Wind** | Luminosity | Snow |
|---|---|---|---|---|---|---|---|
| 1777594126 | 9.44° C | 59% | 1017.4 hPa | 0 mm | 0 m/s | - | - |
| 1777593525 | 10° C | 56% | 1017.4 hPa | 0 mm | 0 m/s | - | - |
| 1777592924 | 10° C | 53% | 1017.3 hPa | 0 mm | 0 m/s | - | - |
| 1777592325 | 10° C | 53% | 1017.2 hPa | 0 mm | 0 m/s | - | - |
| 1777591724 | 10° C | 53% | 1017.2 hPa | 0 mm | 0 m/s | - | - |
| 1777590524 | 11.11° C | 53% | 1017.1 hPa | 0 mm | 0 m/s | - | - |
| 1777589925 | 10.56° C | 52% | 1016.9 hPa | 0 mm | 0 m/s | - | - |
| 1777589325 | 10.56° C | 55% | 1016.7 hPa | 0 mm | 0 m/s | - | - |
| 1777588812 | 10.56° C | 53% | 1016.6 hPa | 0 mm | 0 m/s | - | - |
| 1777588725 | 10.56° C | 53% | 1016.6 hPa | 0 mm | 0 m/s | - | - |
| 1777587524 | 11.11° C | 54% | 1016.8 hPa | 0 mm | 0 m/s | - | - |
| 1777586924 | 11.11° C | 51% | 1016.9 hPa | 0 mm | 0 m/s | - | - |
| 1777586324 | 11.67° C | 50% | 1017.2 hPa | 0 mm | 0 m/s | - | - |
| 1777585724 | 11.67° C | 54% | 1017.3 hPa | 0 mm | 0 m/s | - | - |
| 1777585126 | 11.11° C | 54% | 1017.5 hPa | 0 mm | 0 m/s | - | - |
| 1777584524 | 11.67° C | 52% | 1017.8 hPa | 0 mm | 0 m/s | - | - |
| 1777583926 | 11.67° C | 51% | 1017.8 hPa | 0 mm | 0 m/s | - | - |
| 1777583324 | 11.11° C | 58% | 1017.9 hPa | 0 mm | 0 m/s | - | - |
| 1777582725 | 11.11° C | 56% | 1018 hPa | 0 mm | 0 m/s | - | - |
| 1777582124 | 11.67° C | 53% | 1018.3 hPa | 0 mm | 0 m/s | - | - |
| 1777581525 | 12.22° C | 55% | 1018.5 hPa | 0 mm | 0 m/s | - | - |
| 1777580924 | 11.67° C | 55% | 1018.7 hPa | 0 mm | 0 m/s | - | - |
| 1777580326 | 11.11° C | 57% | 1018.9 hPa | 0 mm | 0 m/s | - | - |
| 1777579727 | 11.11° C | 61% | 1019.2 hPa | 0 mm | 0 m/s | - | - |
| 1777579178 | 11.11° C | 57% | 1019.4 hPa | 0 mm | 1.34 m/s, 228° | - | - |
* Rain latest hour (hover to see other rain measurements)
** Current wind speed in m/s (hover to see current wind gust speed)